Regional Weather Roundup
Issued by NWS Newport/Morehead, NC

Current Version | Previous Version | Graphics & Text | Print | Product List | Glossary Off
Versions: 1 2 3 4 5 6 7 8 9 10 11 12 13 14 15 16 17 18 19 20 21 22 23 24 25 26 27 28 29 30 31 32 33 34 35 36 37 38 39 40 41 42 43 44 45 46 47 48 49 50
513 ASUS42 KMHX 200125 RWRMHX WEATHER ROUNDUP FOR EASTERN NORTH CAROLINA NATIONAL WEATHER SERVICE NEWPORT/MOREHEAD CITY NC 800 PM EST SUN FEB 19 2017 NOTE: "FAIR" INDICATES FEW OR NO CLOUDS BELOW 12,000 FEET WITH NO SIGNIFICANT WEATHER AND/OR OBSTRUCTIONS TO VISIBILITY NCZ015>017-031-032-045>047-102-103-200200- NORTH COAST CITY SKY/WX TMP DP RH WIND PRES REMARKS EDENTON CLEAR 58 47 67 CALM 29.99R ELIZABETH CITY CLEAR 53 44 71 CALM 29.98R KITTY HAWK NOT AVBL MANTEO CLEAR 49 46 88 CALM 29.99R $$ NCZ045>047-081-094-103-104-200200- CENTRAL COAST CITY SKY/WX TMP DP RH WIND PRES REMARKS FRISCO CLEAR 51 45 79 CALM 29.99R $$ NCZ095-097-098-100-101-200200- SOUTHERN COAST CITY SKY/WX TMP DP RH WIND PRES REMARKS BEAUFORT CLEAR 53 49 86 CALM 29.99R CEDAR ISLAND NOT AVBL JACKSONVILLE CLEAR 56 48 74 W5 30.00R PINEY ISLAND CLEAR N/A N/A N/A S3 29.99R WILMINGTON CLEAR 57 47 69 CALM 30.01R $$ NCZ011>013-027>030-043-044-078>080-089-090>093-098-200200- COASTAL PLAIN CITY SKY/WX TMP DP RH WIND PRES REMARKS AHOSKIE N/A 53 47 79 CALM 30.00R CLINTON CLEAR 57 48 73 CALM 30.03R ELIZABETHTOWN CLEAR 58 48 67 CALM 30.03R GOLDSBORO CLEAR 63 44 49 NW7 29.99R GREENVILLE CLEAR 52 37 58 CALM 30.02R HAVELOCK CLEAR 57 46 66 CALM 30.00R KENANSVILLE NOT AVBL KINSTON CLEAR 61 45 55 CALM 30.01R NEW BERN CLEAR 55 47 74 CALM 30.00R RICHLANDS CLEAR 53 47 79 CALM 30.01R ROCKY MOUNT CLEAR 52 47 83 CALM 30.01R WASHINGTON CLEAR 56 45 68 CALM 30.00R WHITEVILLE CLEAR 59 47 64 CALM 30.03R $$ AMZ130-135-150-152-154-156-158-170-250-252-270-ANZ085-086-088-633-658-670-200200- MARINE OBSERVATIONS STATION/POSITION TIME TEMP WIND PRES WAVE SWELL AIR SEA DIR/SP/G HT/PER HT/PER (UTC) (F) (DEG/KT/KT) (MB) (FT/S) (FT/S) CHESAPEAKE LIGHT NOT AVBL 64 E VA BEACH 0050 53 51 330/ 2/ 2 1014.5 2/ 7 2/ 7 DUCK 0100 55 49 320/ 3/ 4 1014.8 2 E DUCK 0100 49 N/A 1/ 7 OREGON INLET 0100 51 310/ 1/ 1 1015.3 13E OREGON INLT NOT AVBL HATTERAS CG 0100 58 56 CALM 1015.2 DIAMOND BUOY 0050 62 67 10/ 10/ 12 1015.5 2/ 7 2/ 7 CAPE LOOKOUT 0100 59 270/ 5/ 5 1015.3 BEAUFORT LAB 0100 55 53 CALM / 1 1014.6 30 SE NEW RVR IN 0108 64 310/ 8/ 10 1015.8 30 SE NEW RVR IN 0113 63 N/A 2/ 6 27 SE WRIGHTSVLE 0108 59 59 290/ 4/ 6 1015.4 5 SE WRIGHTSVLE 0108 61 56 280/ 4/ 6 1016.2 225 S CAPE HAT 0050 69 71 330/ 16/ 19 1014.7 5/ 6 2/10 41 SE CHARLESTON 0050 66 69 280/ 10/ 12 1016.8 2/ 6 2/ 6 $$

USA.gov is the U.S. government's official web portal to all federal, state and local government web resources and services.